Location: Willingham
(52.3167°N, 0.0667°E)
Time: 22:38:30
(UTC+00:00)

USA 234 - Pass Details

Date: 19 May 2025
Orbit: 1096 x 1111 km, 123.0° (Epoch: 05 June)

Event Time Altitude Azimuth Distance (km) Brightness Sun altitude
Rises 22:31:51 0° 64° (ENE) 3,922 6.2 -15.4°
Reaches altitude 10° 22:34:19 10° 63° (ENE) 2,965 5.6 -15.5°
Maximum altitude 22:40:52 80° 339° (NNW) 1,126 3.4 -15.9°
Drops below altitude 10° 22:47:26 10° 253° (WSW) 2,968 5.5 -16.2°
Sets 22:49:55 0° 252° (WSW) 3,926 6.2 -16.3°
